Regional Weather Roundup
Issued by NWS Sterling, VA

Home | Current Version | Previous Version | Text Only | Print | Product List | Glossary Off
Versions: 1 2 3 4 5 6 7 8 9 10 11 12 13 14 15 16 17 18 19 20 21 22 23 24 25 26 27 28

000
ASUS41 KLWX 262010
RWRLWX

REGIONAL WEATHER ROUNDUP
NATIONAL WEATHER SERVICE BALTIMORE MD/WASHINGTON DC
400 PM EDT FRI AUG 26 2016

Note: "FAIR" indicates few or no clouds below 12,000 feet
with no significant weather and/or obstructions to visibility.
 TC=TEMPERATURE CELSIUS

 * =Non NWS site. Station does not report precipitation (e.g. rain,
    snow, etc.), thunder, or fog.

DCZ001-MDZ009-015-VAZ040>042-051-053>054-262100-
WASHINGTON METRO

CITY           SKY/WX    TMP DP  RH WIND       PRES   REMARKS
WASHINGTON NAT PTSUNNY   94  68  42 NW13      30.04F HX  98
DULLES         PTSUNNY   94  68  42 VRB3      30.05F HX  98
ANDREWS AFB    SUNNY     93  69  46 VRB3      30.03F HX  98
FT BELVOIR     SUNNY     93  71  47 VRB2      30.03F HX 100
QUANTICO       PTSUNNY   93  73  52 E6        30.03F HX 102
COLLEGE PARK*  MOSUNNY   90  70  51 N6        30.03F HX  95
LEESBURG*      MOSUNNY   91  72  52 N9        30.06S HX  98
MANASSAS*      PTSUNNY   93  70  46 CALM      30.04F HX  99
GAITHERSBURG*  SUNNY     90  70  51 NW5       30.09F HX  95

$$

MDZ006>007-011-014-262100-
BALTIMORE METRO

CITY           SKY/WX    TMP DP  RH WIND       PRES   REMARKS
BWI AIRPORT    MOSUNNY   92  69  47 NW7       30.03S HX  97
MD SCIENCE CTR   N/A     93  69  45 MISG      30.02F HX  98
MARTIN STATE   MOSUNNY   91  73  55 NW6       30.03F HX 100
ANNAPOLIS      MOSUNNY   92  71  50 NW7       30.02F HX  98
FORT MEADE*    SUNNY    N/A N/A N/A NW5       30.06S

$$

MDZ012-015-019>023-262100-
MARYLAND EASTERN SHORE

CITY           SKY/WX    TMP DP  RH WIND       PRES   REMARKS
OCEAN CITY     MOSUNNY   89  74  60 NE10      30.02R HX  98
SALISBURY      SUNNY     92  72  51 NW10G18   30.02S HX  99
BAY BRIDGE AP* MOSUNNY   90  72  55 N3        30.03S HX  96
CAMBRIDGE*     SUNNY     90  72  55 NW6       30.03S HX  96
EASTON*        SUNNY     91  77  62 NW6       30.07S HX 105

$$

MDZ017>025-262100-
SOUTHERN MARYLAND

CITY           SKY/WX    TMP DP  RH WIND       PRES   REMARKS
PATUXENT RIVER MOSUNNY   92  71  50 NE8       30.03F HX  98
ST INIGOES     PTSUNNY   92  73  53 W8        30.02F HX 100
LEONARDTOWN*   PTSUNNY   90  70  51 CALM      30.05F HX  95

$$

MDZ003>005-262100-
NORTH CENTRAL MARYLAND

CITY           SKY/WX    TMP DP  RH WIND       PRES   REMARKS
FREDERICK*     PTSUNNY   91  72  52 CALM      30.07F HX  98
HAGERSTOWN APT PTSUNNY   93  66  40 N8        30.05F HX  96

$$

MDZ501>502-262100-
WESTERN MARYLAND

CITY           SKY/WX    TMP DP  RH WIND       PRES   REMARKS
OAKLAND*       PTSUNNY   79  64  61 NW6       30.23S
CUMBERLAND*    MOSUNNY   91  63  38 NW6       30.11F HX  92

$$

VAZ025>031-262100-
SHENANDOAH VALLEY

CITY           SKY/WX    TMP DP  RH WIND       PRES   REMARKS
WINCHESTER*    MOSUNNY   90  68  48 NW7       30.06F HX  93
FRONT ROYAL*   FAIR      88  75  66 CALM      30.06S HX  97
LURAY*         FAIR      91  70  49 S3        30.07F HX  97
NEW MARKET*    FAIR     N/A N/A N/A CALM      30.05F
STAUNTON*      SUNNY     91  70  51 SE3       30.11F HX  96
WAYNESBORO*    MOCLDY    87  71  58 SE6       30.11F HX  92

$$

WVZ021-048>050-054>055-262100-
EASTERN WEST VIRGINIA PANHANDLE

CITY           SKY/WX    TMP DP  RH WIND       PRES   REMARKS
MARTINSBURG    MOSUNNY   93  67  42 N9        30.04F HX  96
PETERSBURG*    MOSUNNY   93  68  43 NW8       30.08F HX  97

$$

VAZ036>039-050-262100-
CENTRAL FOOTHILLS

CITY           SKY/WX    TMP DP  RH WIND       PRES   REMARKS
CHARLOTTESVILL SUNNY     95  71  45 S3        30.06F HX 102
CULPEPER*      MOSUNNY   94  73  50 CALM      30.04F HX 103
ORANGE*        NOT AVBL
GORDONSVILLE*  NOT AVBL
WARRENTON*     FAIR      90  71  54 CALM      30.04F HX  97

$$

VAZ055>057-262100-
NORTH AND CENTRAL PIEDMONT

CITY           SKY/WX    TMP DP  RH WIND       PRES   REMARKS
FREDERICKSBRG*   N/A     95  73  48 CALM      30.02F HX 103
STAFFORD*      MOSUNNY   93  70  46 N3        30.08F HX  99

$$

NCZ024-NYZ072-PAZ021-071-VAZ022-071-262100-
OTHER REGIONAL OBSERVATIONS

CITY           SKY/WX    TMP DP  RH WIND       PRES   REMARKS
NEW YORK CITY    N/A     90  64  43 MISG        N/A  HX  91
PHILADELPHIA   MOSUNNY   92  64  39 NW15      30.00F HX  93
PITTSBURGH     MOSUNNY   87  65  47 N9        30.13S
ROANOKE        MOSUNNY   93  68  43 CALM      30.12F HX  97
RICHMOND       MOSUNNY   96  70  42 VRB3      30.03F HX 102
RALEIGH        MOSUNNY   97  67  37 E7        30.05F HX 101

$$

ANZ530>537-262100-
MARINE OBSERVATIONS

STATION/POSITION TIME  TEMP    WIND        PRES
                       AIR SEA DIR/SP/G
                 (UTC) (F)     (DEG/KT/KT) (MB)
THOMAS PT LIGHT  2000   88 84   70/  3/  4 1018.0F
BALT KEY BRIDGE  1948   89     300/  4/  4 1016.7F
COVE POINT       1948   87      40/  3/  4 1017.4F
LEWISETTA        1948   92 84  340/  7/  9 1016.6F
SOLOMONS ISLAND  1948   91 83  330/  6/ 12   N/A
PINEY POINT      1948          320/ 11/ 12   N/A

$$





USA.gov is the U.S. government's official web portal to all federal, state and local government web resources and services.